GONETS M 15 (M25)

导读 | 星芒AI

GONETS M 15(又名 M25)是俄罗斯Gonets卫星通信系统的一部分,由俄罗斯国家航天集团(Roscosmos)运营。该卫星主要用于提供中低轨道(MEO)的窄带卫星通信服务,支持政府和民用用户的数据传输、短信通信及物联网应用。Gonets卫星系统由多颗卫星组成,M15于2016年发射,运行在近地轨道,旨在增强俄罗斯在偏远地区的通信覆盖能力。

基本信息
目录编号:
44906
目录名称:
GONETS M 15 (M25)
国际标识:
2019-096B
轨道中心:
EARTH
卫星名称:
GONETS M 15 (M25)
卫星全名:
--
卫星状态:
在轨 (已飞行2138 天)
发射日期:
2019-12-26 UTC
国别 :
俄罗斯(独联体) (CIS)
星等 :
--
轨道信息
数据来源 国际轨道数据 AOE轨道数据
星历时间 2025-11-02T21:19:27+0800
10小时前
查看轨道信息
2025-11-02T09:00:00+0800
22小时前
查看轨道信息
半长轴 7872.625km 7872.625km
偏心率 0.0015335 0.0015294
轨道倾角 82.527° 82.527°
近地点辐角 315.153° 315.837°
升交点赤经 225.527° 225.845°
平近点角 44.831° 267.681°
近地点 1482.417km 1482.449km
远地点 1506.563km 1506.531km
周期 115.861分钟 115.861分钟
每日圈数 12.428635 12.428635
详细信息
使用方式:
暂无
2D轨道图
3D轨道图
轨道高度分析图
轨道倾角分析图
轨道综合分析图
查看轨道综合分析图